Retour au catalogue

FENGYUN 1C DEB

ActifSSO
NORAD 30281·DEBRIS·🇨🇳 China

Lancé May 10, 1999 depuis Taiyuan Satellite Launch Center

Loading…

Prochains Passages (prochaines 24 heures)

TLE

FraisSource: Space-Track

Époque: Sep 14, 2026, 11:44 UTC

1 30281U 99025YS  26257.48899468  .00000209  00000-0  14070-3 0  9993
2 30281  98.7793 245.5791 0028615 174.6603 342.2762 14.10666634 11095

Suivez FENGYUN 1C DEB en temps réel avec AllMySat

Download on the App Store